Flag for United Kingdom Weather past 2 weeks in Luton, England, United Kingdom

Now
37 °F

Clear.


Feels Like: 27 °F
Forecast: 36 / 42 °F
Wind: 18 mph from Southwest

Location: Luton Airport

Current Time: Mar 2, 2015 at 4:42:04 AM

Latest Report: Mar 2, 2015 at 4:20 AM


Visibility: 10 mi

Pressure: 29.56 "Hg

Humidity: 87%

Dew point: 34 °F

Location of LutonLocation

Historic Weather in Luton — Graph

°F

Luton temperature yesterday

Maximum temperature yesterday: 50 °F (at 12:20 AM)
Minimum temperature yesterday: 37 °F (at 9:50 PM)
Average temperature yesterday: 44 °F

Past Weeks' High & Low Weather Summary

 TemperatureHumidityPressure
High52 °F (Feb 26, 1:20 PM)100% (Feb 15, 3:50 AM)30.72 "Hg (Feb 15, 3:50 AM)
Low30 °F (Feb 18, 2:50 AM)53% (Feb 24, 2:50 PM)29.18 "Hg (Feb 22, 10:20 PM)
Average41 °F86%29.85 "Hg
* Reported Feb 15 3:20 AM — Mar 2 3:50 AM, Luton, Weather by CustomWeather, © 2015

Note: Actual official high and low records may vary slightly from our data, if they occured in-between our weather recording intervals... More about our weather records

Advertising

Luton weather history for previous 24 hours

 ConditionsComfort  
Time TempWeatherWind HumidityBarometerVisibility
3:50 AM
Mon, Mar 2
37 °FClear.17 mph87%29.53 "Hg10 mi
3:20 AM37 °FClear.17 mph87%29.53 "Hg10 mi
2:50 AM36 °FClear.16 mph87%29.53 "Hg10 mi
2:20 AM36 °FClear.17 mph87%29.53 "Hg10 mi
1:50 AM37 °FChilly.16 mph87%29.53 "HgN/A
1:20 AM37 °FClear.20 mph81%29.53 "Hg10 mi
12:50 AM37 °FChilly.18 mph81%29.53 "HgN/A
12:20 AM37 °FClear.17 mph81%29.50 "Hg10 mi
11:50 PM
Sun, Mar 1
37 °FClear.18 mph75%29.50 "Hg10 mi
11:20 PM37 °FClear.18 mph75%29.50 "Hg10 mi
10:50 PM37 °FClear.20 mph75%29.50 "Hg10 mi
10:20 PM37 °FClear.17 mph81%29.50 "Hg10 mi
9:50 PM37 °FClear.17 mph81%29.47 "Hg10 mi
9:20 PM39 °FClear.18 mph81%29.47 "Hg10 mi
8:50 PM39 °FChilly.16 mph81%29.45 "HgN/A
8:20 PM41 °FClear.24 mph81%29.45 "Hg10 mi
7:20 PM43 °FClear.30 mph81%29.42 "Hg10 mi
6:50 PM41 °FClear.22 mph87%29.39 "Hg10 mi
6:20 PM43 °FPassing clouds.16 mph76%29.39 "HgN/A
5:50 PM41 °FPassing clouds.13 mph93%29.39 "HgN/A
5:20 PM41 °FBroken clouds.15 mph87%29.39 "HgN/A
4:50 PM48 °FSprinkles. Scattered clouds.20 mph62%29.42 "HgN/A
4:20 PM48 °FScattered clouds.21 mph58%29.42 "HgN/A
3:50 PM48 °FPassing clouds.18 mph58%29.45 "HgN/A
3:20 PM50 °FPassing clouds.16 mph58%29.47 "HgN/A
2:50 PM50 °FPassing clouds.17 mph58%29.50 "HgN/A
2:20 PM50 °FPassing clouds.18 mph54%29.50 "HgN/A
1:50 PM48 °FScattered clouds.23 mph58%29.50 "HgN/A
1:20 PM48 °FPassing clouds.26 mph58%29.53 "HgN/A
12:50 PM48 °FPassing clouds.28 mph58%29.53 "HgN/A
12:20 PM48 °FPassing clouds.28 mph58%29.53 "HgN/A
11:50 AM46 °FScattered clouds.23 mph66%29.56 "HgN/A
11:20 AM46 °FScattered clouds.28 mph62%29.53 "HgN/A
10:50 AM46 °FBroken clouds.23 mph66%29.56 "HgN/A
10:20 AM45 °FBroken clouds.24 mph76%29.53 "HgN/A
9:50 AM45 °FScattered clouds.21 mph76%29.53 "HgN/A
9:20 AM45 °FPassing clouds.22 mph71%29.53 "HgN/A
8:50 AM45 °FPassing clouds.18 mph76%29.53 "HgN/A
8:20 AM43 °FSunny.17 mph81%29.53 "Hg10 mi
7:50 AM43 °FSunny.18 mph81%29.50 "Hg10 mi
7:20 AM41 °FSunny.17 mph81%29.50 "Hg10 mi
6:50 AM43 °FSunny.20 mph81%29.50 "Hg10 mi
6:20 AM43 °FClear.16 mph81%29.47 "Hg10 mi
5:50 AM43 °FClear.18 mph81%29.47 "Hg10 mi
5:20 AM43 °FClear.17 mph81%29.47 "Hg10 mi
4:50 AM43 °FPassing clouds.21 mph87%29.45 "HgN/A
4:20 AM45 °FClear.20 mph81%29.45 "Hg10 mi
Weather by CustomWeather, © 2015

See weather overviewHow to use our weather pages